Year,Month,Day,Hour,Minute,Value (Times are PST for insolation in W/m^2)
2013,06,10,00,00,0.00
2013,06,10,00,01,0.00
2013,06,10,00,02,0.00
2013,06,10,00,03,0.00
2013,06,10,00,04,0.00
2013,06,10,00,05,0.00
2013,06,10,00,06,0.00
2013,06,10,00,07,0.00
2013,06,10,00,08,0.00
2013,06,10,00,09,0.00
2013,06,10,00,10,0.00
2013,06,10,00,11,0.00
2013,06,10,00,12,0.00
2013,06,10,00,13,0.00
2013,06,10,00,14,0.00
2013,06,10,00,15,0.00
2013,06,10,00,16,0.00
2013,06,10,00,17,0.00
2013,06,10,00,18,0.00
2013,06,10,00,19,0.00
2013,06,10,00,20,0.00
2013,06,10,00,21,0.00
2013,06,10,00,22,0.00
2013,06,10,00,23,0.00
2013,06,10,00,24,0.00
2013,06,10,00,25,0.00
2013,06,10,00,26,0.00
2013,06,10,00,27,0.00
2013,06,10,00,28,0.00
2013,06,10,00,29,0.00
2013,06,10,00,30,0.00
2013,06,10,00,31,0.00
2013,06,10,00,32,0.00
2013,06,10,00,33,0.00
2013,06,10,00,34,0.00
2013,06,10,00,35,0.00
2013,06,10,00,36,0.00
2013,06,10,00,37,0.00
2013,06,10,00,38,0.00
2013,06,10,00,39,0.00
2013,06,10,00,40,0.00
2013,06,10,00,41,0.00
2013,06,10,00,42,0.00
2013,06,10,00,43,0.00
2013,06,10,00,44,0.00
2013,06,10,00,45,0.00
2013,06,10,00,46,0.00
2013,06,10,00,47,0.00
2013,06,10,00,48,0.00
2013,06,10,00,49,0.00
2013,06,10,00,50,0.00
2013,06,10,00,51,0.00
2013,06,10,00,52,0.00
2013,06,10,00,53,0.00
2013,06,10,00,54,0.00
2013,06,10,00,55,0.00
2013,06,10,00,56,0.00
2013,06,10,00,57,0.00
2013,06,10,00,58,0.00
2013,06,10,00,59,0.00
2013,06,10,01,00,0.00
2013,06,10,01,01,0.00
2013,06,10,01,02,0.00
2013,06,10,01,03,0.00
2013,06,10,01,04,0.00
2013,06,10,01,05,0.00
2013,06,10,01,06,0.00
2013,06,10,01,07,0.00
2013,06,10,01,08,0.00
2013,06,10,01,09,0.00
2013,06,10,01,10,0.00
2013,06,10,01,11,0.00
2013,06,10,01,12,0.00
2013,06,10,01,13,0.00
2013,06,10,01,14,0.00
2013,06,10,01,15,0.00
2013,06,10,01,16,0.00
2013,06,10,01,17,0.00
2013,06,10,01,18,0.00
2013,06,10,01,19,0.00
2013,06,10,01,20,0.00
2013,06,10,01,21,0.00
2013,06,10,01,22,0.00
2013,06,10,01,23,0.00
2013,06,10,01,24,0.00
2013,06,10,01,25,0.00
2013,06,10,01,26,0.00
2013,06,10,01,27,0.00
2013,06,10,01,28,0.00
2013,06,10,01,29,0.00
2013,06,10,01,30,0.00
2013,06,10,01,31,0.00
2013,06,10,01,32,0.00
2013,06,10,01,33,0.00
2013,06,10,01,34,0.00
2013,06,10,01,35,0.00
2013,06,10,01,36,0.00
2013,06,10,01,37,0.00
2013,06,10,01,38,0.00
2013,06,10,01,39,0.00
2013,06,10,01,40,0.00
2013,06,10,01,41,0.00
2013,06,10,01,42,0.00
2013,06,10,01,43,0.00
2013,06,10,01,44,0.00
2013,06,10,01,45,0.00
2013,06,10,01,46,0.00
2013,06,10,01,47,0.00
2013,06,10,01,48,0.00
2013,06,10,01,49,0.00
2013,06,10,01,50,0.00
2013,06,10,01,51,0.00
2013,06,10,01,52,0.00
2013,06,10,01,53,0.00
2013,06,10,01,54,0.00
2013,06,10,01,55,0.00
2013,06,10,01,56,0.00
2013,06,10,01,57,0.00
2013,06,10,01,58,0.00
2013,06,10,01,59,0.00
2013,06,10,02,00,0.00
2013,06,10,02,01,0.00
2013,06,10,02,02,0.00
2013,06,10,02,03,0.00
2013,06,10,02,04,0.00
2013,06,10,02,05,0.00
2013,06,10,02,06,0.00
2013,06,10,02,07,0.00
2013,06,10,02,08,0.00
2013,06,10,02,09,0.00
2013,06,10,02,10,0.00
2013,06,10,02,11,0.00
2013,06,10,02,12,0.00
2013,06,10,02,13,0.00
2013,06,10,02,14,0.00
2013,06,10,02,15,0.00
2013,06,10,02,16,0.00
2013,06,10,02,17,0.00
2013,06,10,02,18,0.00
2013,06,10,02,19,0.00
2013,06,10,02,20,0.00
2013,06,10,02,21,0.00
2013,06,10,02,22,0.00
2013,06,10,02,23,0.00
2013,06,10,02,24,0.00
2013,06,10,02,25,0.00
2013,06,10,02,26,0.00
2013,06,10,02,27,0.00
2013,06,10,02,28,0.00
2013,06,10,02,29,0.00
2013,06,10,02,30,0.00
2013,06,10,02,31,0.00
2013,06,10,02,32,0.00
2013,06,10,02,33,0.00
2013,06,10,02,34,0.00
2013,06,10,02,35,0.00
2013,06,10,02,36,0.00
2013,06,10,02,37,0.00
2013,06,10,02,38,0.00
2013,06,10,02,39,0.00
2013,06,10,02,40,0.00
2013,06,10,02,41,0.00
2013,06,10,02,42,0.00
2013,06,10,02,43,0.00
2013,06,10,02,44,0.00
2013,06,10,02,45,0.00
2013,06,10,02,46,0.00
2013,06,10,02,47,0.00
2013,06,10,02,48,0.00
2013,06,10,02,49,0.00
2013,06,10,02,50,0.00
2013,06,10,02,51,0.00
2013,06,10,02,52,0.00
2013,06,10,02,53,0.00
2013,06,10,02,54,0.00
2013,06,10,02,55,0.00
2013,06,10,02,56,0.00
2013,06,10,02,57,0.00
2013,06,10,02,58,0.00
2013,06,10,02,59,0.00
2013,06,10,03,00,0.00
2013,06,10,03,01,0.00
2013,06,10,03,02,0.00
2013,06,10,03,03,0.00
2013,06,10,03,04,0.00
2013,06,10,03,05,0.00
2013,06,10,03,06,0.00
2013,06,10,03,07,0.00
2013,06,10,03,08,0.00
2013,06,10,03,09,0.00
2013,06,10,03,10,0.00
2013,06,10,03,11,0.00
2013,06,10,03,12,0.00
2013,06,10,03,13,0.00
2013,06,10,03,14,0.00
2013,06,10,03,15,0.00
2013,06,10,03,16,0.00
2013,06,10,03,17,0.00
2013,06,10,03,18,0.00
2013,06,10,03,19,0.00
2013,06,10,03,20,0.00
2013,06,10,03,21,0.00
2013,06,10,03,22,0.00
2013,06,10,03,23,0.00
2013,06,10,03,24,0.00
2013,06,10,03,25,0.00
2013,06,10,03,26,0.00
2013,06,10,03,27,0.00
2013,06,10,03,28,0.00
2013,06,10,03,29,0.00
2013,06,10,03,30,0.00
2013,06,10,03,31,0.00
2013,06,10,03,32,0.00
2013,06,10,03,33,0.00
2013,06,10,03,34,0.00
2013,06,10,03,35,0.00
2013,06,10,03,36,0.00
2013,06,10,03,37,0.00
2013,06,10,03,38,0.00
2013,06,10,03,39,0.00
2013,06,10,03,40,0.00
2013,06,10,03,41,0.00
2013,06,10,03,42,0.00
2013,06,10,03,43,0.00
2013,06,10,03,44,0.00
2013,06,10,03,45,0.00
2013,06,10,03,46,0.00
2013,06,10,03,47,0.00
2013,06,10,03,48,0.00
2013,06,10,03,49,0.00
2013,06,10,03,50,0.00
2013,06,10,03,51,0.00
2013,06,10,03,52,0.00
2013,06,10,03,53,0.00
2013,06,10,03,54,0.00
2013,06,10,03,55,0.00
2013,06,10,03,56,0.00
2013,06,10,03,57,0.00
2013,06,10,03,58,0.00
2013,06,10,03,59,0.00
2013,06,10,04,00,0.00
2013,06,10,04,01,0.00
2013,06,10,04,02,0.00
2013,06,10,04,03,0.00
2013,06,10,04,04,0.00
2013,06,10,04,05,0.00
2013,06,10,04,06,0.00
2013,06,10,04,07,0.00
2013,06,10,04,08,0.00
2013,06,10,04,09,0.00
2013,06,10,04,10,0.00
2013,06,10,04,11,0.00
2013,06,10,04,12,0.00
2013,06,10,04,13,0.00
2013,06,10,04,14,0.00
2013,06,10,04,15,0.00
2013,06,10,04,16,0.00
2013,06,10,04,17,0.00
2013,06,10,04,18,0.00
2013,06,10,04,19,0.00
2013,06,10,04,20,0.00
2013,06,10,04,21,0.00
2013,06,10,04,22,0.00
2013,06,10,04,23,0.00
2013,06,10,04,24,0.00
2013,06,10,04,25,0.00
2013,06,10,04,26,0.00
2013,06,10,04,27,0.00
2013,06,10,04,28,0.00
2013,06,10,04,29,0.00
2013,06,10,04,30,0.00
2013,06,10,04,31,0.00
2013,06,10,04,32,0.00
2013,06,10,04,33,0.00
2013,06,10,04,34,0.00
2013,06,10,04,35,0.00
2013,06,10,04,36,0.00
2013,06,10,04,37,0.00
2013,06,10,04,38,0.00
2013,06,10,04,39,0.00
2013,06,10,04,40,0.00
2013,06,10,04,41,0.00
2013,06,10,04,42,0.00
2013,06,10,04,43,0.00
2013,06,10,04,44,0.00
2013,06,10,04,45,0.00
2013,06,10,04,46,0.00
2013,06,10,04,47,0.00
2013,06,10,04,48,0.00
2013,06,10,04,49,0.00
2013,06,10,04,50,0.00
2013,06,10,04,51,0.00
2013,06,10,04,52,0.00
2013,06,10,04,53,0.00
2013,06,10,04,54,0.00
2013,06,10,04,55,0.00
2013,06,10,04,56,0.00
2013,06,10,04,57,0.00
2013,06,10,04,58,0.00
2013,06,10,04,59,0.00
2013,06,10,05,00,0.00
2013,06,10,05,01,0.00
2013,06,10,05,02,0.00
2013,06,10,05,03,0.00
2013,06,10,05,04,0.00
2013,06,10,05,05,0.00
2013,06,10,05,06,0.00
2013,06,10,05,07,0.00
2013,06,10,05,08,0.00
2013,06,10,05,09,0.00
2013,06,10,05,10,0.00
2013,06,10,05,11,0.00
2013,06,10,05,12,0.00
2013,06,10,05,13,0.00
2013,06,10,05,14,0.00
2013,06,10,05,15,0.00
2013,06,10,05,16,0.00
2013,06,10,05,17,0.00
2013,06,10,05,18,0.00
2013,06,10,05,19,0.00
2013,06,10,05,20,0.00
2013,06,10,05,21,3.80
2013,06,10,05,22,5.00
2013,06,10,05,23,5.00
2013,06,10,05,24,5.00
2013,06,10,05,25,5.00
2013,06,10,05,26,5.00
2013,06,10,05,27,5.00
2013,06,10,05,28,5.00
2013,06,10,05,29,5.00
2013,06,10,05,30,5.00
2013,06,10,05,31,5.00
2013,06,10,05,32,5.00
2013,06,10,05,33,5.00
2013,06,10,05,34,6.50
2013,06,10,05,35,7.00
2013,06,10,05,36,7.00
2013,06,10,05,37,7.00
2013,06,10,05,38,7.00
2013,06,10,05,39,7.00
2013,06,10,05,40,7.00
2013,06,10,05,41,7.00
2013,06,10,05,42,7.00
2013,06,10,05,43,7.00
2013,06,10,05,44,7.00
2013,06,10,05,45,8.50
2013,06,10,05,46,9.00
2013,06,10,05,47,9.00
2013,06,10,05,48,9.00
2013,06,10,05,49,9.00
2013,06,10,05,50,9.00
2013,06,10,05,51,10.50
2013,06,10,05,52,11.00
2013,06,10,05,53,11.00
2013,06,10,05,54,11.00
2013,06,10,05,55,11.00
2013,06,10,05,56,11.80
2013,06,10,05,57,12.00
2013,06,10,05,58,12.00
2013,06,10,05,59,12.00
2013,06,10,06,00,13.50
2013,06,10,06,01,14.00
2013,06,10,06,02,14.00
2013,06,10,06,03,14.00
2013,06,10,06,04,15.50
2013,06,10,06,05,16.00
2013,06,10,06,06,16.00
2013,06,10,06,07,16.00
2013,06,10,06,08,17.50
2013,06,10,06,09,18.80
2013,06,10,06,10,20.50
2013,06,10,06,11,21.00
2013,06,10,06,12,19.50
2013,06,10,06,13,19.00
2013,06,10,06,14,20.50
2013,06,10,06,15,21.00
2013,06,10,06,16,21.00
2013,06,10,06,17,21.00
2013,06,10,06,18,22.50
2013,06,10,06,19,23.00
2013,06,10,06,20,23.00
2013,06,10,06,21,24.50
2013,06,10,06,22,25.00
2013,06,10,06,23,25.00
2013,06,10,06,24,25.00
2013,06,10,06,25,25.80
2013,06,10,06,26,26.00
2013,06,10,06,27,26.00
2013,06,10,06,28,27.50
2013,06,10,06,29,28.00
2013,06,10,06,30,28.00
2013,06,10,06,31,29.50
2013,06,10,06,32,30.00
2013,06,10,06,33,30.00
2013,06,10,06,34,31.50
2013,06,10,06,35,32.80
2013,06,10,06,36,34.50
2013,06,10,06,37,36.50
2013,06,10,06,38,38.50
2013,06,10,06,39,39.00
2013,06,10,06,40,39.00
2013,06,10,06,41,37.50
2013,06,10,06,42,35.50
2013,06,10,06,43,35.00
2013,06,10,06,44,36.50
2013,06,10,06,45,40.80
2013,06,10,06,46,47.20
2013,06,10,06,47,52.80
2013,06,10,06,48,57.00
2013,06,10,06,49,75.20
2013,06,10,06,50,103.50
2013,06,10,06,51,102.80
2013,06,10,06,52,80.50
2013,06,10,06,53,59.00
2013,06,10,06,54,58.50
2013,06,10,06,55,61.50
2013,06,10,06,56,55.20
2013,06,10,06,57,47.80
2013,06,10,06,58,44.50
2013,06,10,06,59,45.50
2013,06,10,07,00,44.50
2013,06,10,07,01,42.50
2013,06,10,07,02,42.00
2013,06,10,07,03,42.00
2013,06,10,07,04,43.50
2013,06,10,07,05,56.00
2013,06,10,07,06,99.80
2013,06,10,07,07,161.80
2013,06,10,07,08,196.00
2013,06,10,07,09,202.00
2013,06,10,07,10,169.00
2013,06,10,07,11,101.80
2013,06,10,07,12,88.20
2013,06,10,07,13,90.80
2013,06,10,07,14,75.20
2013,06,10,07,15,69.20
2013,06,10,07,16,66.00
2013,06,10,07,17,77.00
2013,06,10,07,18,88.50
2013,06,10,07,19,88.80
2013,06,10,07,20,77.50
2013,06,10,07,21,68.80
2013,06,10,07,22,68.50
2013,06,10,07,23,79.50
2013,06,10,07,24,83.00
2013,06,10,07,25,68.30
2013,06,10,07,26,56.20
2013,06,10,07,27,58.50
2013,06,10,07,28,55.50
2013,06,10,07,29,57.00
2013,06,10,07,30,61.80
2013,06,10,07,31,62.20
2013,06,10,07,32,60.50
2013,06,10,07,33,54.80
2013,06,10,07,34,53.80
2013,06,10,07,35,81.80
2013,06,10,07,36,79.80
2013,06,10,07,37,59.50
2013,06,10,07,38,57.00
2013,06,10,07,39,85.80
2013,06,10,07,40,97.20
2013,06,10,07,41,104.80
2013,06,10,07,42,107.00
2013,06,10,07,43,220.20
2013,06,10,07,44,290.20
2013,06,10,07,45,306.20
2013,06,10,07,46,301.20
2013,06,10,07,47,297.50
2013,06,10,07,48,291.80
2013,06,10,07,49,309.80
2013,06,10,07,50,315.30
2013,06,10,07,51,315.00
2013,06,10,07,52,309.80
2013,06,10,07,53,330.50
2013,06,10,07,54,338.00
2013,06,10,07,55,340.20
2013,06,10,07,56,342.50
2013,06,10,07,57,348.20
2013,06,10,07,58,352.20
2013,06,10,07,59,357.50
2013,06,10,08,00,361.20
2013,06,10,08,01,365.80
2013,06,10,08,02,368.50
2013,06,10,08,03,372.80
2013,06,10,08,04,377.00
2013,06,10,08,05,379.50
2013,06,10,08,06,382.20
2013,06,10,08,07,386.00
2013,06,10,08,08,390.80
2013,06,10,08,09,393.50
2013,06,10,08,10,396.20
2013,06,10,08,11,398.50
2013,06,10,08,12,402.80
2013,06,10,08,13,403.20
2013,06,10,08,14,405.20
2013,06,10,08,15,402.20
2013,06,10,08,16,404.80
2013,06,10,08,17,390.20
2013,06,10,08,18,409.80
2013,06,10,08,19,417.20
2013,06,10,08,20,420.80
2013,06,10,08,21,425.80
2013,06,10,08,22,416.50
2013,06,10,08,23,409.20
2013,06,10,08,24,410.20
2013,06,10,08,25,388.50
2013,06,10,08,26,413.20
2013,06,10,08,27,421.00
2013,06,10,08,28,405.80
2013,06,10,08,29,432.50
2013,06,10,08,30,446.80
2013,06,10,08,31,449.50
2013,06,10,08,32,453.00
2013,06,10,08,33,454.80
2013,06,10,08,34,458.00
2013,06,10,08,35,462.80
2013,06,10,08,36,465.50
2013,06,10,08,37,468.20
2013,06,10,08,38,472.00
2013,06,10,08,39,474.50
2013,06,10,08,40,477.20
2013,06,10,08,41,481.00
2013,06,10,08,42,482.80
2013,06,10,08,43,486.00
2013,06,10,08,44,488.50
2013,06,10,08,45,491.20
2013,06,10,08,46,495.00
2013,06,10,08,47,496.80
2013,06,10,08,48,498.50
2013,06,10,08,49,502.00
2013,06,10,08,50,506.80
2013,06,10,08,51,509.50
2013,06,10,08,52,512.20
2013,06,10,08,53,516.00
2013,06,10,08,54,517.00
2013,06,10,08,55,520.80
2013,06,10,08,56,525.00
2013,06,10,08,57,526.80
2013,06,10,08,58,531.50
2013,06,10,08,59,533.00
2013,06,10,09,00,535.20
2013,06,10,09,01,539.00
2013,06,10,09,02,540.80
2013,06,10,09,03,545.50
2013,06,10,09,04,547.80
2013,06,10,09,05,551.00
2013,06,10,09,06,554.20
2013,06,10,09,07,561.80
2013,06,10,09,08,503.20
2013,06,10,09,09,554.20
2013,06,10,09,10,581.00
2013,06,10,09,11,584.20
2013,06,10,09,12,582.80
2013,06,10,09,13,578.20
2013,06,10,09,14,577.00
2013,06,10,09,15,577.80
2013,06,10,09,16,582.50
2013,06,10,09,17,586.20
2013,06,10,09,18,588.50
2013,06,10,09,19,591.20
2013,06,10,09,20,595.00
2013,06,10,09,21,598.20
2013,06,10,09,22,604.20
2013,06,10,09,23,611.20
2013,06,10,09,24,619.80
2013,06,10,09,25,623.50
2013,06,10,09,26,624.00
2013,06,10,09,27,525.00
2013,06,10,09,28,492.00
2013,06,10,09,29,492.00
2013,06,10,09,30,303.80
2013,06,10,09,31,217.00
2013,06,10,09,32,186.50
2013,06,10,09,33,146.00
2013,06,10,09,34,135.00
2013,06,10,09,35,129.00
2013,06,10,09,36,106.80
2013,06,10,09,37,97.80
2013,06,10,09,38,97.00
2013,06,10,09,39,97.00
2013,06,10,09,40,136.00
2013,06,10,09,41,149.00
2013,06,10,09,42,149.00
2013,06,10,09,43,149.00
2013,06,10,09,44,149.00
2013,06,10,09,45,545.00
2013,06,10,09,46,675.50
2013,06,10,09,47,684.00
2013,06,10,09,48,687.00
2013,06,10,09,49,687.00
2013,06,10,09,50,281.20
2013,06,10,09,51,146.00
2013,06,10,09,52,146.00
2013,06,10,09,53,146.00
2013,06,10,09,54,553.20
2013,06,10,09,55,692.80
2013,06,10,09,56,694.00
2013,06,10,09,57,694.00
2013,06,10,09,58,699.20
2013,06,10,09,59,702.50
2013,06,10,10,00,704.50
2013,06,10,10,01,710.20
2013,06,10,10,02,714.20
2013,06,10,10,03,715.00
2013,06,10,10,04,715.00
2013,06,10,10,05,736.80
2013,06,10,10,06,744.00
2013,06,10,10,07,744.00
2013,06,10,10,08,252.00
2013,06,10,10,09,85.00
2013,06,10,10,10,81.80
2013,06,10,10,11,74.20
2013,06,10,10,12,75.00
2013,06,10,10,13,81.20
2013,06,10,10,14,94.20
2013,06,10,10,15,98.00
2013,06,10,10,16,167.00
2013,06,10,10,17,175.80
2013,06,10,10,18,174.80
2013,06,10,10,19,140.00
2013,06,10,10,20,125.80
2013,06,10,10,21,127.20
2013,06,10,10,22,128.00
2013,06,10,10,23,132.50
2013,06,10,10,24,149.80
2013,06,10,10,25,158.80
2013,06,10,10,26,160.00
2013,06,10,10,27,179.50
2013,06,10,10,28,149.20
2013,06,10,10,29,138.50
2013,06,10,10,30,137.50
2013,06,10,10,31,149.20
2013,06,10,10,32,173.50
2013,06,10,10,33,194.80
2013,06,10,10,34,213.50
2013,06,10,10,35,258.50
2013,06,10,10,36,228.50
2013,06,10,10,37,214.00
2013,06,10,10,38,223.80
2013,06,10,10,39,188.80
2013,06,10,10,40,169.20
2013,06,10,10,41,158.00
2013,06,10,10,42,153.50
2013,06,10,10,43,150.00
2013,06,10,10,44,154.20
2013,06,10,10,45,162.80
2013,06,10,10,46,177.00
2013,06,10,10,47,191.50
2013,06,10,10,48,195.00
2013,06,10,10,49,181.00
2013,06,10,10,50,193.20
2013,06,10,10,51,160.80
2013,06,10,10,52,143.50
2013,06,10,10,53,134.50
2013,06,10,10,54,128.20
2013,06,10,10,55,127.00
2013,06,10,10,56,130.80
2013,06,10,10,57,130.50
2013,06,10,10,58,131.50
2013,06,10,10,59,130.50
2013,06,10,11,00,130.00
2013,06,10,11,01,135.20
2013,06,10,11,02,142.20
2013,06,10,11,03,142.50
2013,06,10,11,04,143.50
2013,06,10,11,05,147.00
2013,06,10,11,06,150.20
2013,06,10,11,07,157.80
2013,06,10,11,08,166.80
2013,06,10,11,09,163.80
2013,06,10,11,10,157.50
2013,06,10,11,11,157.50
2013,06,10,11,12,167.80
2013,06,10,11,13,183.80
2013,06,10,11,14,186.50
2013,06,10,11,15,186.00
2013,06,10,11,16,186.00
2013,06,10,11,17,186.00
2013,06,10,11,18,237.80
2013,06,10,11,19,203.20
2013,06,10,11,20,192.30
2013,06,10,11,21,205.50
2013,06,10,11,22,209.00
2013,06,10,11,23,209.00
2013,06,10,11,24,209.00
2013,06,10,11,25,209.00
2013,06,10,11,26,757.20
2013,06,10,11,27,943.00
2013,06,10,11,28,950.40
2013,06,10,11,29,951.50
2013,06,10,11,30,951.00
2013,06,10,11,31,951.00
2013,06,10,11,32,951.00
2013,06,10,11,33,422.20
2013,06,10,11,34,227.20
2013,06,10,11,35,288.50
2013,06,10,11,36,287.00
2013,06,10,11,37,250.50
2013,06,10,11,38,212.30
2013,06,10,11,39,168.50
2013,06,10,11,40,192.50
2013,06,10,11,41,216.80
2013,06,10,11,42,221.00
2013,06,10,11,43,358.20
2013,06,10,11,44,404.00
2013,06,10,11,45,185.80
2013,06,10,11,46,107.00
2013,06,10,11,47,105.00
2013,06,10,11,48,759.00
2013,06,10,11,49,1011.50
2013,06,10,11,50,1023.00
2013,06,10,11,51,1023.00
2013,06,10,11,52,1080.00
2013,06,10,11,53,1099.00
2013,06,10,11,54,1099.00
2013,06,10,11,55,1099.00
2013,06,10,11,56,1099.00
2013,06,10,11,57,445.00
2013,06,10,11,58,224.00
2013,06,10,11,59,219.20
2013,06,10,12,00,211.20
2013,06,10,12,01,206.80
2013,06,10,12,02,206.00
2013,06,10,12,03,206.80
2013,06,10,12,04,207.00
2013,06,10,12,05,206.20
2013,06,10,12,06,208.20
2013,06,10,12,07,203.80
2013,06,10,12,08,193.00
2013,06,10,12,09,179.50
2013,06,10,12,10,173.00
2013,06,10,12,11,176.50
2013,06,10,12,12,185.50
2013,06,10,12,13,200.00
2013,06,10,12,14,216.80
2013,06,10,12,15,221.00
2013,06,10,12,16,677.80
2013,06,10,12,17,830.00
2013,06,10,12,18,452.80
2013,06,10,12,19,327.00
2013,06,10,12,20,327.00
2013,06,10,12,21,327.00
2013,06,10,12,22,937.50
2013,06,10,12,23,1118.50
2013,06,10,12,24,1130.50
2013,06,10,12,25,1141.50
2013,06,10,12,26,1153.50
2013,06,10,12,27,1157.80
2013,06,10,12,28,1158.00
2013,06,10,12,29,1158.00
2013,06,10,12,30,1098.00
2013,06,10,12,31,1055.50
2013,06,10,12,32,1074.20
2013,06,10,12,33,1083.00
2013,06,10,12,34,514.50
2013,06,10,12,35,297.20
2013,06,10,12,36,288.00
2013,06,10,12,37,867.00
2013,06,10,12,38,1078.80
2013,06,10,12,39,1080.50
2013,06,10,12,40,1079.00
2013,06,10,12,41,1079.00
2013,06,10,12,42,1079.00
2013,06,10,12,43,1079.00
2013,06,10,12,44,1079.00
2013,06,10,12,45,1103.00
2013,06,10,12,46,1125.20
2013,06,10,12,47,1134.50
2013,06,10,12,48,1136.00
2013,06,10,12,49,1136.00
2013,06,10,12,50,1092.50
2013,06,10,12,51,1089.20
2013,06,10,12,52,1096.00
2013,06,10,12,53,1119.50
2013,06,10,12,54,1113.50
2013,06,10,12,55,1077.50
2013,06,10,12,56,1063.20
2013,06,10,12,57,1030.50
2013,06,10,12,58,1010.20
2013,06,10,12,59,1005.50
2013,06,10,13,00,1008.00
2013,06,10,13,01,1018.00
2013,06,10,13,02,1021.00
2013,06,10,13,03,1015.00
2013,06,10,13,04,1013.00
2013,06,10,13,05,1013.80
2013,06,10,13,06,1006.50
2013,06,10,13,07,1004.00
2013,06,10,13,08,997.20
2013,06,10,13,09,993.50
2013,06,10,13,10,990.80
2013,06,10,13,11,990.80
2013,06,10,13,12,987.20
2013,06,10,13,13,986.00
2013,06,10,13,14,986.00
2013,06,10,13,15,986.00
2013,06,10,13,16,984.50
2013,06,10,13,17,984.00
2013,06,10,13,18,984.00
2013,06,10,13,19,983.20
2013,06,10,13,20,983.00
2013,06,10,13,21,980.00
2013,06,10,13,22,980.50
2013,06,10,13,23,977.20
2013,06,10,13,24,974.50
2013,06,10,13,25,974.00
2013,06,10,13,26,972.50
2013,06,10,13,27,972.00
2013,06,10,13,28,970.50
2013,06,10,13,29,970.00
2013,06,10,13,30,970.00
2013,06,10,13,31,970.00
2013,06,10,13,32,970.00
2013,06,10,13,33,969.20
2013,06,10,13,34,969.00
2013,06,10,13,35,967.50
2013,06,10,13,36,967.00
2013,06,10,13,37,968.50
2013,06,10,13,38,966.00
2013,06,10,13,39,968.00
2013,06,10,13,40,966.00
2013,06,10,13,41,963.50
2013,06,10,13,42,963.00
2013,06,10,13,43,963.00
2013,06,10,13,44,962.20
2013,06,10,13,45,962.80
2013,06,10,13,46,962.20
2013,06,10,13,47,960.50
2013,06,10,13,48,962.20
2013,06,10,13,49,962.20
2013,06,10,13,50,959.00
2013,06,10,13,51,961.00
2013,06,10,13,52,960.50
2013,06,10,13,53,960.00
2013,06,10,13,54,961.50
2013,06,10,13,55,960.50
2013,06,10,13,56,958.50
2013,06,10,13,57,961.00
2013,06,10,13,58,962.00
2013,06,10,13,59,959.00
2013,06,10,14,00,958.00
2013,06,10,14,01,956.50
2013,06,10,14,02,957.50
2013,06,10,14,03,959.50
2013,06,10,14,04,955.50
2013,06,10,14,05,954.00
2013,06,10,14,06,955.50
2013,06,10,14,07,954.50
2013,06,10,14,08,954.00
2013,06,10,14,09,954.00
2013,06,10,14,10,954.00
2013,06,10,14,11,950.20
2013,06,10,14,12,952.80
2013,06,10,14,13,951.80
2013,06,10,14,14,949.50
2013,06,10,14,15,947.50
2013,06,10,14,16,948.50
2013,06,10,14,17,947.50
2013,06,10,14,18,944.80
2013,06,10,14,19,945.50
2013,06,10,14,20,946.00
2013,06,10,14,21,946.00
2013,06,10,14,22,944.50
2013,06,10,14,23,944.00
2013,06,10,14,24,944.00
2013,06,10,14,25,944.00
2013,06,10,14,26,942.50
2013,06,10,14,27,942.00
2013,06,10,14,28,940.50
2013,06,10,14,29,940.00
2013,06,10,14,30,939.20
2013,06,10,14,31,937.60
2013,06,10,14,32,938.50
2013,06,10,14,33,937.50
2013,06,10,14,34,937.00
2013,06,10,14,35,935.50
2013,06,10,14,36,935.00
2013,06,10,14,37,932.80
2013,06,10,14,38,930.50
2013,06,10,14,39,931.50
2013,06,10,14,40,929.00
2013,06,10,14,41,929.50
2013,06,10,14,42,928.50
2013,06,10,14,43,928.00
2013,06,10,14,44,928.00
2013,06,10,14,45,926.50
2013,06,10,14,46,926.00
2013,06,10,14,47,930.50
2013,06,10,14,48,932.80
2013,06,10,14,49,927.00
2013,06,10,14,50,922.00
2013,06,10,14,51,917.20
2013,06,10,14,52,916.00
2013,06,10,14,53,914.50
2013,06,10,14,54,911.80
2013,06,10,14,55,911.80
2013,06,10,14,56,911.20
2013,06,10,14,57,909.50
2013,06,10,14,58,910.50
2013,06,10,14,59,911.80
2013,06,10,15,00,908.20
2013,06,10,15,01,907.00
2013,06,10,15,02,904.80
2013,06,10,15,03,904.00
2013,06,10,15,04,901.00
2013,06,10,15,05,901.50
2013,06,10,15,06,899.00
2013,06,10,15,07,898.00
2013,06,10,15,08,896.50
2013,06,10,15,09,893.80
2013,06,10,15,10,890.00
2013,06,10,15,11,839.50
2013,06,10,15,12,758.50
2013,06,10,15,13,737.00
2013,06,10,15,14,737.00
2013,06,10,15,15,455.80
2013,06,10,15,16,362.00
2013,06,10,15,17,151.70
2013,06,10,15,18,86.00
2013,06,10,15,19,86.00
2013,06,10,15,20,62.00
2013,06,10,15,21,54.00
2013,06,10,15,22,54.00
2013,06,10,15,23,53.20
2013,06,10,15,24,53.00
2013,06,10,15,25,51.50
2013,06,10,15,26,53.20
2013,06,10,15,27,60.00
2013,06,10,15,28,60.50
2013,06,10,15,29,57.00
2013,06,10,15,30,69.50
2013,06,10,15,31,92.00
2013,06,10,15,32,113.00
2013,06,10,15,33,108.20
2013,06,10,15,34,85.50
2013,06,10,15,35,66.20
2013,06,10,15,36,62.80
2013,06,10,15,37,63.00
2013,06,10,15,38,55.50
2013,06,10,15,39,59.80
2013,06,10,15,40,59.00
2013,06,10,15,41,55.00
2013,06,10,15,42,62.20
2013,06,10,15,43,65.00
2013,06,10,15,44,65.00
2013,06,10,15,45,65.00
2013,06,10,15,46,132.50
2013,06,10,15,47,113.80
2013,06,10,15,48,73.80
2013,06,10,15,49,63.50
2013,06,10,15,50,59.20
2013,06,10,15,51,66.20
2013,06,10,15,52,72.80
2013,06,10,15,53,60.50
2013,06,10,15,54,64.20
2013,06,10,15,55,67.00
2013,06,10,15,56,307.00
2013,06,10,15,57,387.00
2013,06,10,15,58,387.00
2013,06,10,15,59,387.00
2013,06,10,16,00,387.00
2013,06,10,16,01,147.00
2013,06,10,16,02,81.20
2013,06,10,16,03,68.80
2013,06,10,16,04,62.20
2013,06,10,16,05,59.00
2013,06,10,16,06,56.50
2013,06,10,16,07,56.00
2013,06,10,16,08,56.00
2013,06,10,16,09,56.00
2013,06,10,16,10,56.00
2013,06,10,16,11,57.50
2013,06,10,16,12,59.50
2013,06,10,16,13,61.50
2013,06,10,16,14,59.00
2013,06,10,16,15,55.00
2013,06,10,16,16,53.20
2013,06,10,16,17,51.50
2013,06,10,16,18,51.00
2013,06,10,16,19,51.00
2013,06,10,16,20,51.00
2013,06,10,16,21,51.00
2013,06,10,16,22,51.00
2013,06,10,16,23,51.00
2013,06,10,16,24,52.50
2013,06,10,16,25,55.20
2013,06,10,16,26,56.00
2013,06,10,16,27,54.50
2013,06,10,16,28,57.00
2013,06,10,16,29,54.20
2013,06,10,16,30,48.30
2013,06,10,16,31,46.20
2013,06,10,16,32,44.50
2013,06,10,16,33,44.00
2013,06,10,16,34,44.00
2013,06,10,16,35,44.00
2013,06,10,16,36,44.00
2013,06,10,16,37,44.00
2013,06,10,16,38,44.00
2013,06,10,16,39,44.00
2013,06,10,16,40,44.00
2013,06,10,16,41,44.00
2013,06,10,16,42,44.00
2013,06,10,16,43,44.00
2013,06,10,16,44,42.50
2013,06,10,16,45,42.00
2013,06,10,16,46,42.00
2013,06,10,16,47,42.00
2013,06,10,16,48,42.00
2013,06,10,16,49,42.00
2013,06,10,16,50,42.00
2013,06,10,16,51,47.20
2013,06,10,16,52,43.80
2013,06,10,16,53,45.00
2013,06,10,16,54,46.80
2013,06,10,16,55,41.80
2013,06,10,16,56,44.50
2013,06,10,16,57,43.00
2013,06,10,16,58,40.50
2013,06,10,16,59,40.00
2013,06,10,17,00,40.00
2013,06,10,17,01,40.00
2013,06,10,17,02,40.00
2013,06,10,17,03,40.00
2013,06,10,17,04,40.00
2013,06,10,17,05,79.80
2013,06,10,17,06,93.00
2013,06,10,17,07,192.00
2013,06,10,17,08,214.50
2013,06,10,17,09,256.00
2013,06,10,17,10,215.50
2013,06,10,17,11,197.00
2013,06,10,17,12,120.50